"Pseudo-MPEC" for C3HMY22

Created 2020 Oct 28 20:07:03 UT using Find_Orb

Click here for an explanation of pseudo-MPECs

 
 Astrometry: 
     C3HMY22  C2020 10 12Bp^xpfb@\u@Z_svD44RdKO7.\m7/5-m8_dXG*;B%=djW:4EN@dSIF51
     C3HMY22  C2020 10 12!a+HR:8Astrometry_bredacted;*DbEdWgitD-?UG-ONd(w@C]hF51
     C3HMY22  C2020 10 15.30160002 58 00.29 +10 28 57.7    ~AF8M 21.43GVNEOCPG96
     C3HMY22  C2020 10 15.30671402 57 59.75 +10 28 46.8    ~AF8M 21.57GVNEOCPG96
     C3HMY22  C2020 10 15.31182102 57 59.21 +10 28 35.5    ~AF8M 21.30GVNEOCPG96
     C3HMY22  C2020 10 15.31692902 57 58.65 +10 28 25.0    ~AF8M 20.33GVNEOCPG96
     C3HMY22  C2020 10 15.46357302 57 42.41 +10 23 13.6    ~AFBb 21.05GVNEOCPG96
     C3HMY22  C2020 10 15.46467302 57 42.30 +10 23 11.3    ~AFBb 21.24GVNEOCPG96
     C3HMY22  C2020 10 15.46577302 57 42.18 +10 23 09.3    ~AFBb 21.04GVNEOCPG96
     C3HMY22  C2020 10 15.46687402 57 42.08 +10 23 06.6    ~AFBb 21.13GVNEOCPG96
     C3HMY22 KC2020 10 16.25608402 56 15.96 +09 55 00.1    ~AG6q 21.06GVNEOCPI52
     C3HMY22 KC2020 10 16.25991902 56 15.57 +09 54 51.8    ~AG6q 20.95GVNEOCPI52
     C3HMY22 KC2020 10 16.26375502 56 15.13 +09 54 44.1    ~AG6q 20.76GVNEOCPI52
     C3HMY22 KC2020 10 16.26759102 56 14.67 +09 54 35.2    ~AG6q 20.99GVNEOCPI52
     C3HMY22 KC2020 10 17.29042102 54 21.02 +09 17 44.8    ~AH7M 21.42GVNEOCPI52
     C3HMY22 KC2020 10 17.29272502 54 20.78 +09 17 39.8    ~AH7M 21.14GVNEOCPI52
     C3HMY22 KC2020 10 17.29502802 54 20.55 +09 17 35.8    ~AH7M 21.04GVNEOCPI52
     C3HMY22 KC2020 10 18uwZZ9dX?MW**EsYC'RR(_RXgq`ek*Y%S::mXL2+*pj)D#%UX-nd?858
     C3HMY22 KC2020 10 18.28792502 52 28.60 +08 41 25.0    ~AI7M 21.39GVNEOCPI52
     C3HMY22 KC2020 10 18.29022802 52 28.39 +08 41 19.4    ~AI7M 21.46GVNEOCPI52
     C3HMY22 KC2020 10 18.29253102 52 28.11 +08 41 14.3    ~AI7M 21.34GVNEOCPI52
     C3HMY22 KC2020 10 18\[!Ld#`CVT]#20jrn`w*?#/N5qvy6X5p3aZj!$!U;$B%nnsU0J9)858
     C3HMY22 KC2020 10 19'#1N-d@Q5-loxnsy#5WE:L9h[#8N`@Qq6%YRDy]Y,P(^xV7!Eo!_L01
     C3HMY22 KC2020 10 19un'VL@*2:6*Po=]m@J/;eRX0!YIv'QRSK7f?'Jovg,j]'p_Q%T.DL01
     C3HMY22 KC2020 10 19-fT.yX_c7Z4(-/J`k/PN6gAZB)$Oo37nEvOclick.h/vJ/)Z3+@$L01
     C3HMY22 KC2020 10 19.26948002 50 36.56 +08 05 15.6    ~AJ6q 21.33GVNEOCPI52
     C3HMY22 KC2020 10 19.27254902 50 36.21 +08 05 09.3    ~AJ6q 21.10GVNEOCPI52
     C3HMY22 KC2020 10 19.27561802 50 35.88 +08 05 02.8    ~AJ6q 21.34GVNEOCPI52
     C3HMY22 KC2020 10 20.32586402 48 34.33 +07 25 58.6    ~AK8M 20.78GVNEOCPI52
     C3HMY22 KC2020 10 20.32922102 48 33.92 +07 25 51.1    ~AK8M 20.96GVNEOCPI52
     C3HMY22 KC2020 10 20.33258002 48 33.52 +07 25 44.0    ~AK8M 20.43GVNEOCPI52
     C3HMY22 KC2020 10 20.33594102 48 33.09 +07 25 36.3    ~AK8M 20.32GVNEOCPI52
     C3HMY22 |C2020 10 20nJR^$?Z^ac=j3*\'OXV]?YK(b+;G%?p)KT-EhF`,cQ?m3vE1YFPlH06
     C3HMY22 |C2020 10 20qYTVNU5HKMZ%rHKY.4dM[QNWv_jvi\Gj#+F8SK0+6y.a2pPvD1MLH06
     C3HMY22 KC2020 10 21.31780702 46 38.28 +06 48 45.2    ~AL87 20.58GVNEOCPI52
     C3HMY22 KC2020 10 21.32202002 46 37.81 +06 48 35.7    ~AL87 20.72GVNEOCPI52
     C3HMY22 KC2020 10 21.32454102 46 37.48 +06 48 30.1    ~AL87 20.56GVNEOCPI52
     C3HMY22 KC2020 10 21.32706302 46 37.17 +06 48 24.3    ~AL87 20.54GVNEOCPI52
     C3HMY22 KC2020 10 23.25717602 42 48.05 +05 35 08.6    ~AN6b 21.00GVNEOCPI52
     C3HMY22 KC2020 10 23.25885202 42 47.84 +05 35 05.6    ~AN6b 21.78GVNEOCPI52
     C3HMY22 KC2020 10 23.26053002 42 47.58 +05 35 00.9    ~AN6b 21.44GVNEOCPI52
     C3HMY22 KC2020 10 23.26220602 42 47.37 +05 34 57.1    ~AN6b 21.57GVNEOCPI52
     C3HMY22 KC2020 10 24.32723102 40 38.99 +04 54 08.8    ~AO8b 20.91GVNEOCPI52
     C3HMY22 KC2020 10 24.32978102 40 38.70 +04 54 02.4    ~AO8b 21.47GVNEOCPI52
     C3HMY22 KC2020 10 24.33233202 40 38.37 +04 53 57.2    ~AO8b 20.67GVNEOCPI52
     C3HMY22  C2020 10 24C#1gTT$!Wn%bnqot(uYrNAY`8/6\uc.rhereAs9uM=v^fUF4Mo./F52
     C3HMY22  C2020 10 24kh[s/:Z!$p]S4E%UPF\*\+6cELEg-?PGSR%#iX757F-VPSlW8nmCF52
     C3HMY22  C2020 10 24*Vw)(wpi!jISpLv(1@?vorBd6s-tO_$1\NROjU\:[YCyD=rcmg65F52
     C3HMY22  C2020 10 24GK@bEI!#4]R4i[XDrs%+pYOgQmZr]o?]t9ysbwP7)dvJ6I*AscK`F52
     C3HMY22 |C2020 10 27:@f!i+8=Dl7`lh6^KTdi*iZTsU'6h*xbpy,!lforIy^:_*(Oh-]S807
     C3HMY22 |C2020 10 27wgv1uIf#_mEik-_E9:k=9OWRY:explanation[HGUx++/'Tv^mC)807
     C3HMY22 |C2020 10 27\h6ug*5XG(-$4AIC@gRL](S7X7*!t@C1o1o^i@QtTLmWogDG+p^g807
     C3HMY22 KC2020 10 27.25456402 34 41.36 +03 00 59.1    ~AR6q 21.70GVNEOCPI52
     C3HMY22 KC2020 10 27.25708302 34 41.08 +03 00 52.5    ~AR6q 21.29GVNEOCPI52
     C3HMY22 KC2020 10 27.26212202 34 40.58 +03 00 42.2    ~AR6q 20.65GVNEOCPI52

Station data:
(807) Cerro Tololo Observatory, La Serena  (S30.169136 W70.805900)  Chile.
(858) Tebbutt Observatory, Edgewood  (N35.093872 W106.220000)  US/New Mexico.
(F51) Pan-STARRS 1, Haleakala  (N20.707235 W156.255910)  US/Hawaii.
   Observers N. Primak, A. Schultz, S. Watters, J. Thiel, T. Goggia. Measurer
   PS1 Science Consortium. 1.8-m Ritchey-Chrétien + CCD.
(F52) Pan-STARRS 2, Haleakala  (N20.707384 W156.255910)  US/Hawaii. 1.8-m
   Ritchey-Chrétien + CCD.
(G96) Mt. Lemmon Survey  (N32.442754 W110.788720)  US/Arizona.  Observers T.
   A. Pruyne, B. M. Africano, E. J. Christensen, G. A. Farneth, D. C. Fuls,
   A. R. Gibbs, A. D. Grauer, H. Gröller, J. A. Johnson, R. A. Kowalski, S.
   M. Larson, G. J. Leonard, D. Rankin, R. L. Seaman, F. C. Shelly. 1.5-m
   reflector + 10K CCD.
(H06) RAS Observatory, Mayhill  (N32.903325 W105.528700)  US/New
   Mexico.  Observers E. Guido, G. Sostero, V. Gonano, L. Donato.
(I52) Steward Observatory, Mt. Lemmon Station  (N32.442547 W110.788920)
   US/Arizona.  Observers T. A. Pruyne, B. M. Africano, E. J. Christensen, G.
   A. Farneth, D. C. Fuls, A. R. Gibbs, A. D. Grauer, H. Gröller, J. A.
   Johnson, R. A. Kowalski, S. M. Larson, G. J. Leonard, D. Rankin, R. L.
   Seaman, F. C. Shelly. 1.0-m reflector + CCD.
(L01) Višnjan Observatory, Tičan  (N45.290900 E13.749300)  Croatia.
   Observers K. Korlević, E. Pettarin. Measurer E. Pettarin. 1.0-m f/2.9
   reflector + CCD.

Orbital elements:  C3HMY22
   Perihelion 2021 Feb 9.668617 +/- 0.422 TT = 16:02:48 (JD 2459255.168617)
Epoch 2020 Oct 27.0 TT = JDT 2459149.5                        AutoNEOCP
M 358.79943717 +/- 0.09             (J2000 ecliptic)
n   0.01136158 +/- 0.000816         Peri.  221.78137 +/- 0.11
a  19.5964228 +/- 0.938             Node   218.11099 +/- 0.011
e   0.8728948 +/- 0.00595           Incl.  105.49982 +/- 0.07
P  86.75                   H 17.5   G  0.15   U  8.0  
q 2.49080672 +/- 0.00235    Q 36.7020390 +/- 1.68
From 55 observations 2020 Oct. 12-27; mean residual 0".40
Residuals in arcseconds: 
201012 F51  .00   .07-    201018 I52  .23+  .09-    201023 I52  .96+  .27-    
201012 F51  .08+  .10-    201018 I52  .01+  .13-    201023 I52  .87+  .57+    
201015 G96  .23-  .16+    201018 858  .40-  1.1+    201023 I52  .03+  .28-    
201015 G96  .12+  .10+    201019 L01  .25-  .18-    201023 I52  .07-  .24-    
201015 G96  .46+  .38-    201019 L01  .07-  .64-    201024 I52  .23-  .01-    
201015 G96  .50+  .04-    201019 L01  .63-  .33-    201024 I52  .11+  .53-    
201015 G96  .28-  .11+    201019 I52  .40-  .33-    201024 I52  .14-  .15+    
201015 G96  .12-  .16+    201019 I52  .28-  .18+    201024 F52  .42+  .28+    
201015 G96  .10-  .50+    201019 I52  .12+  .49+    201024 F52  .33+  .06-    
201015 G96  .22+  .14+    201020 I52  .06+  .13-    201024 F52  .28+  .03+    
201016 I52  .07-  .06-    201020 I52  .14-  .10-    201024 F52  .30+  .33-    
201016 I52  .50+  .14-    201020 I52  .19-  .33+    201027 807  .15-  .12-    
201016 I52  .32+  .39+    201020 I52  .68-  .17+    201027 807  .06-  .20-    
201016 I52  .15-  .28-    201020 H06  .11-  .56-    201027 807  .37+  .70-    
201017 I52  .30-  .48-    201020 H06  .18+  .01+    201027 I52  1.4-  .46+    
201017 I52  .02+  .47-    201021 I52  .20+  .11+    201027 I52  .90-  .27-    
201017 I52  .48+  .53+    201021 I52  .69+  .14+    201027 I52  1.0+  1.2+    
201018 858  .36-  .08-    201021 I52  .26+  .24+    
201018 I52  .58-  .45+    201021 I52  .13+  .14+    

Ephemerides (geocentric):
Date (UTC) HH   RA              Dec         delta   r     elong  mag " sig PA
---- -- -- --  -------------   -----------  ------ ------ -----  --- ---- ---
2020 10 28 20  02 31 26.015   +01 59 37.68  1.7237 2.7026 167.7 21.2 .203 151
2020 10 28 21  02 31 20.843   +01 58 00.38  1.7236 2.7025 167.7 21.2 .206 151
2020 10 28 22  02 31 15.669   +01 56 23.09  1.7235 2.7023 167.7 21.2 .209 151
2020 10 28 23  02 31 10.494   +01 54 45.79  1.7234 2.7022 167.7 21.2 .212 152
2020 10 29 00  02 31 05.319   +01 53 08.49  1.7233 2.7020 167.7 21.2 .215 152
2020 10 29 01  02 31 00.143   +01 51 31.18  1.7232 2.7018 167.7 21.2 .218 152
2020 10 29 02  02 30 54.966   +01 49 53.88  1.7230 2.7017 167.6 21.2 .221 152
2020 10 29 03  02 30 49.789   +01 48 16.58  1.7229 2.7015 167.6 21.2 .224 153
2020 10 29 04  02 30 44.610   +01 46 39.27  1.7228 2.7013 167.6 21.2 .228 153
2020 10 29 05  02 30 39.431   +01 45 01.96  1.7227 2.7012 167.6 21.2 .231 153
2020 10 29 06  02 30 34.252   +01 43 24.66  1.7226 2.7010 167.6 21.2 .234 153
2020 10 29 07  02 30 29.071   +01 41 47.35  1.7225 2.7009 167.6 21.2 .237 154
2020 10 29 08  02 30 23.890   +01 40 10.04  1.7224 2.7007 167.5 21.2 .241 154
2020 10 29 09  02 30 18.708   +01 38 32.73  1.7223 2.7005 167.5 21.2 .244 154
2020 10 29 10  02 30 13.525   +01 36 55.42  1.7222 2.7004 167.5 21.2 .247 154
2020 10 29 11  02 30 08.342   +01 35 18.12  1.7221 2.7002 167.5 21.2 .251 154
2020 10 29 12  02 30 03.158   +01 33 40.81  1.7220 2.7001 167.4 21.2 .254 155
2020 10 29 13  02 29 57.973   +01 32 03.50  1.7219 2.6999 167.4 21.2 .257 155
2020 10 29 14  02 29 52.788   +01 30 26.20  1.7218 2.6997 167.4 21.2 .261 155
2020 10 29 15  02 29 47.601   +01 28 48.89  1.7217 2.6996 167.4 21.2 .264 155
2020 10 29 16  02 29 42.415   +01 27 11.59  1.7216 2.6994 167.4 21.2 .268 156
2020 10 29 17  02 29 37.227   +01 25 34.29  1.7215 2.6993 167.3 21.2 .271 156
